Showing default

FLOCK 3S 3, 43788

Orbit data source: Space-Track

FLOCK 3S 3, 43788 is a payload satellite owned by Planet (US) in SSO that was launched on Mon, 03 Dec 2018 UTC via an FALCON 9 launch vehicle from the Air Force Western Test Range (AFWTR). Payloads include a variety of satellites, spacecraft, and rockets equipped with specific instruments for various scientific and technological missions. These include communications satellites like Starlink; space stations such as the ISS; scientific satellites like the Hubble; Earth observation satellites from companies like Planet Labs, Umbra, and HawkEye 360; GPS; miniature CubeSats for education and research; and military/defense satellites.

Loading next visibility...
FLOCK 3S 3 details
Identifier
43788, 2018-099AG
Orbit
SSO
Last TLE update1 day ago
Origin
Flag of USPlanet (US)
ManufacturerPlanet
MissionNon-operational Commercial Imaging
Bus & MotorCUBESAT 3U, Unknown motor
Mass4.7 kg wet, 4.7 kg dry
Launch date (UTC)
2018-12-03 (6 years ago)
Launch vehicle
FALCON 9
Launch site
Air Force Western Test Range (AFWTR)
Object type
Payload
Rocket body
Debris
Shape & HBRBox + 2 Pan, 0.3 m
Radar Cross Section0.108 m², Small (<0.1 m²)

Expand to show TLE details & history

TLE from 1 day ago
0 FLOCK 3S 3
1 43788U 18099AG  24347.91055703  .00022954  00000-0  10032-2 0  9997
2 43788  97.5112  48.1824 0009466  56.7740 303.4402 15.22060732329837
Epoch: 2024-12-12T21:51Z
Definitive object data (Epoch: 2024-12-12T21:51:12.127Z)
Latitude-0.00002°
Longitude-1.70223°
Altitude499.132 km
Speed7.617 km/s
True Right ascension03h 12m 43s
True Declination0° 00' 00"
Sunlit
Object was in full shadow at TLE epoch
Visualization TLE readout
Latitude-23.41787°
Longitude176.32654°
Altitude514.055 km
Speed7.602 km/s
Apparent Right ascension15h 09m 48s
Apparent Declination-31° 11' 28"
Sunlit
Object is in daylight
Visualization observer readout
Local Sidereal Time03:16:13
Azimuth8.981° NNE
Elevation-81.178°
Doppler factor1
Orbital elements
Apogee altitude503.101 km
Perigee altitude490.086 km
Semi-major axis6,874.73 km
Eccentricity0.0009466
Inclination97.5112°
RAAN48.1824°
Arg. of periapsis56.774°
True anomaly303.34962°
Mean anomaly303.4402°
Eccentric anomaly303.39492°
Mean motion3.80767 °/min
BSTAR0.0010032
Orbital period94.55 mins
Loading maneuver chart data...
Loading historical data...
Loading historical data...
Loading historical data...
Loading historical data...
Loading historical data...
Loading historical data...
Loading historical data...

FLOCK 3S 3 Visibility forecast

Observer location: undefined°, undefined

Span
Click to sort rows by Start time (UTC) header in descending order
Start Az.
Max El. time (UTC)
Max El. Az.
Max El.
End time (UTC)
End Az.
7 mins2024-12-14 17:00:17.470Z15.835° NNE2024-12-14 17:04:17.470Z152.676° SSE42.255°2024-12-14 17:07:17.470Z186.939° SSW
4 mins2024-12-15 03:39:17.470Z112.067° ESE2024-12-15 03:41:17.470Z60.022° ENE23.895°2024-12-15 03:43:17.470Z19.573° NNE
|